DMSP 5D-2 F13 DEB, 40449

Orbit data source: Space-Track

DMSP 5D-2 F13 DEB, 40449 is space debris in SSO originally from a launch on Fri, 24 Mar 1995 UTC launched from the Air Force Western Test Range (AFWTR). Debris objects in space refer to the collection of defunct objects orbiting the Earth. Examples of debris include non-operational satellites, rocket bodies, and fragments generated from explosions, collisions, or faulty payload assembly.

Loading next visibility...
Identifier
40449, 1995-015BB
Orbit
SSO
Country
Flag of USUS
Related business
Manufacturer
Unknown
Mission
Spacecraft
Bus & Motor
Unknown
Mass
Unknown
Launch date (UTC)
1995-03-24 (31 years ago)
Launch vehicle
Unknown
Launch site
Air Force Western Test Range (AFWTR)
Object type
Payload
Rocket body
Debris
Shape & HBR
Unknown shape, 0.1 m
Radar Cross Section
Medium (>0.1 m² and <1 m²)

Expand to show TLE details & history
Last TLE update: 3 days ago

TLE from 3 days ago
0 DMSP 5D-2 F13 DEB
1 40449U 95015BB  26170.49488132  .00002934  00000-0  10791-2 0  9994
2 40449  98.9203 186.9765 0020349 249.9143 109.9850 14.33332877583926
Epoch: 2026-06-19T11:52Z
TLE epoch observation values (Epoch: 2026-06-19T11:52:37.746Z)
Latitude
-0.00001°
Longitude
101.09618°
Altitude
788.544 km
Speed
7.457 km/s
True Right ascension
12h 27m 54s
True Declination
0° 00' 00"
Sunlit
Object was in daylight at epoch
Visualization orbit readout
Latitude
Unknown
Longitude
Unknown
Altitude
Unknown
Speed
Unknown
Apparent Right ascension
Unknown
Apparent Declination
Unknown
Sunlit
N/A
Visualization observer readout
Local Sidereal Time
20:57:43
Azimuth
Unknown
Elevation
Unknown
Doppler factor
Unknown
Orbital elements
Apogee altitude
792.325 km
Perigee altitude
763.201 km
Semi-major axis
7,155.9 km
Eccentricity
0.00203
Inclination
98.9203°
RAAN
186.9765°
Arg. of periapsis
249.9143°
True anomaly
110.20395°
Mean anomaly
109.985°
Eccentric anomaly
110.09449°
Mean motion
3.58548 °/min
Orbital period
100.41 mins
BSTAR
0.0010791
Loading maneuver chart data...
Computing Atmospheric mass density...

Documentation

Showing up to 5 results
|